Date String (YYYY-MM-DD hh:mm:ss) UTC,Instrument flags,Ambient pressure (hPa),Sample flow (lpm),Bypass flow (lpm),Sample temperature (°C),Ambient temperature (°C),ASC tube jacket temperature (°C),LED temperature (°C),Box temperature (°C),Sample RH (%),Span deviation,Mass concentration (μg/m³),Mass concentration (μg/m³),Mass concentration (μg/m³)
DateTimeUTC,F1_M11,P_M11,Q1_M11,Q2_M11,T1_M11,T2_M11,T3_M11,T4_M11,T5_M11,U1_M11,ZSPAN_M11,X0_M11,X2_M11,X1_M11
2022-02-11 20:00:00,,0827.8,4.99,0.00,21.8,21.5,00.0,30.9,23.5,16.3,0000.0,0002.89,0000.88,0000.53
2022-02-11 20:01:00,,0827.9,5.00,0.00,21.9,22.4,00.0,31.0,23.8,16.2,0000.0,0002.89,0000.90,0000.54
2022-02-11 20:02:00,,0827.9,4.99,0.00,22.1,23.1,00.0,31.0,24.1,16.1,0000.0,0002.74,0000.85,0000.55
2022-02-11 20:03:00,,0827.9,5.01,0.00,22.2,22.9,00.0,31.0,24.1,16.0,0000.0,0002.61,0000.82,0000.54
2022-02-11 20:04:00,,0828.0,5.00,0.00,22.2,22.6,00.0,31.0,24.1,16.1,0000.0,0002.47,0000.80,0000.54
2022-02-11 20:05:00,,0828.0,5.00,0.00,22.2,22.3,00.0,31.1,24.0,16.0,0000.0,0002.53,0000.80,0000.54
2022-02-11 20:06:00,,0828.0,5.00,0.00,22.1,22.1,00.0,31.1,23.9,16.0,0000.0,0002.86,0000.89,0000.53
2022-02-11 20:07:00,,0828.1,5.00,0.00,22.1,21.9,00.0,31.1,23.8,16.0,0000.0,0002.77,0000.88,0000.53
2022-02-11 20:08:00,,0828.1,5.00,0.00,22.1,21.8,00.0,31.1,23.8,16.0,0000.0,0002.79,0000.89,0000.53
2022-02-11 20:09:00,,0828.1,5.01,0.00,22.1,21.7,00.0,31.1,23.7,16.1,0000.0,0003.92,0000.90,0000.52
2022-02-11 20:10:00,,0828.0,5.00,0.00,22.0,21.5,00.0,31.0,23.7,16.1,0000.0,0003.71,0000.90,0000.52
2022-02-11 20:11:00,,0828.0,5.01,0.00,22.0,21.4,00.0,31.0,23.6,16.1,0000.0,0003.04,0000.86,0000.50
2022-02-11 20:12:00,,0827.9,4.99,0.00,21.9,21.3,00.0,31.0,23.6,16.2,0000.0,0002.95,0000.82,0000.48
2022-02-11 20:13:00,,0827.9,5.00,0.00,21.9,21.2,00.0,31.0,23.5,16.3,0000.0,0002.95,0000.82,0000.47
2022-02-11 20:14:00,,0827.9,4.99,0.00,21.9,21.2,00.0,31.0,23.5,16.3,0000.0,0003.01,0000.82,0000.46
2022-02-11 20:15:00,,0828.0,5.01,0.00,21.8,21.1,00.0,31.0,23.4,16.3,0000.0,0003.05,0000.82,0000.44
2022-02-11 20:16:00,,0828.0,4.99,0.00,21.9,21.5,00.0,31.0,23.5,16.3,0000.0,0003.00,0000.81,0000.44
2022-02-11 20:17:00,,0828.1,5.00,0.00,22.0,22.4,00.0,31.0,23.9,16.2,0000.0,0002.80,0000.78,0000.44
2022-02-11 20:18:00,,0828.2,4.99,0.00,22.2,23.1,00.0,31.1,24.2,16.1,0000.0,0002.86,0000.79,0000.44
2022-02-11 20:19:00,,0828.2,5.00,0.00,22.3,22.9,00.0,31.1,24.2,16.0,0000.0,0002.78,0000.76,0000.43
2022-02-11 20:20:00,,0828.1,4.99,0.00,22.3,22.7,00.0,31.1,24.2,15.9,0000.0,0001.88,0000.75,0000.43
2022-02-11 20:21:00,,0828.1,5.00,0.00,22.2,22.4,00.0,31.1,24.0,15.9,0000.0,0003.52,0000.76,0000.44
2022-02-11 20:22:00,,0828.2,5.00,0.00,22.2,22.2,00.0,31.1,24.0,15.9,0000.0,0004.32,0000.81,0000.45
2022-02-11 20:23:00,,0828.2,5.00,0.00,22.2,22.0,00.0,31.1,23.9,15.9,0000.0,0004.40,0000.84,0000.46
2022-02-11 20:24:00,,0828.2,4.99,0.00,22.1,21.8,00.0,31.1,23.8,15.9,0000.0,0004.43,0000.85,0000.47
2022-02-11 20:25:00,,0828.5,5.01,0.00,22.1,21.7,00.0,31.1,23.8,16.0,0000.0,0004.45,0000.85,0000.48
2022-02-11 20:26:00,,0828.4,4.98,0.00,22.1,21.6,00.0,31.1,23.8,16.0,0000.0,0004.53,0000.90,0000.49
2022-02-11 20:27:00,,0828.2,5.01,0.00,22.1,21.5,00.0,31.1,23.7,16.1,0000.0,0004.58,0000.92,0000.51
2022-02-11 20:28:00,,0828.2,4.99,0.00,22.0,21.5,00.0,31.1,23.7,16.1,0000.0,0004.65,0000.88,0000.51
2022-02-11 20:29:00,,0828.2,5.00,0.00,22.0,21.4,00.0,31.1,23.7,16.2,0000.0,0005.52,0000.90,0000.51
2022-02-11 20:30:00,,0828.2,5.01,0.00,22.0,21.3,00.0,31.1,23.6,16.3,0000.0,0005.77,0000.94,0000.51
2022-02-11 20:31:00,,0828.2,5.00,0.00,22.0,21.3,00.0,31.1,23.6,16.4,0000.0,0005.64,0000.95,0000.53
2022-02-11 20:32:00,,0828.3,5.00,0.00,21.9,21.2,00.0,31.0,23.6,16.4,0000.0,0003.68,0000.94,0000.54
2022-02-11 20:33:00,,0828.3,4.99,0.00,21.9,21.2,00.0,31.0,23.6,16.4,0000.0,0003.53,0000.94,0000.55
2022-02-11 20:34:00,,0828.3,5.01,0.00,21.9,21.2,00.0,31.0,23.6,16.5,0000.0,0003.71,0000.91,0000.55
2022-02-11 20:35:00,,0828.2,4.98,0.00,21.9,21.2,00.0,31.0,23.5,16.5,0000.0,0003.70,0000.92,0000.55
2022-02-11 20:36:00,,0828.2,5.01,0.00,21.9,21.2,00.0,31.0,23.5,16.5,0000.0,0003.69,0000.95,0000.56
2022-02-11 20:37:00,,0828.2,4.99,0.00,21.9,21.3,00.0,31.0,23.5,16.5,0000.0,0003.57,0000.92,0000.57
2022-02-11 20:38:00,,0828.3,5.00,0.00,22.0,22.1,00.0,31.0,23.8,16.4,0000.0,0003.56,0000.93,0000.58
2022-02-11 20:39:00,,0828.4,4.99,0.00,22.1,23.0,00.0,31.1,24.1,16.2,0000.0,0003.38,0000.95,0000.60
2022-02-11 20:40:00,,0828.5,5.01,0.00,22.3,23.1,00.0,31.1,24.3,16.1,0000.0,0002.41,0000.92,0000.61
2022-02-11 20:41:00,,0828.4,4.98,0.00,22.3,22.8,00.0,31.1,24.3,16.0,0000.0,0002.32,0000.92,0000.62
2022-02-11 20:42:00,,0828.4,5.01,0.00,22.3,22.6,00.0,31.1,24.2,16.0,0000.0,0002.43,0000.95,0000.63
2022-02-11 20:43:00,,0828.4,5.00,0.00,22.3,22.3,00.0,31.1,24.2,16.0,0000.0,0002.51,0000.95,0000.63
2022-02-11 20:44:00,,0828.8,4.99,0.00,22.3,22.2,00.0,31.2,24.1,16.0,0000.0,0002.05,0000.97,0000.64
2022-02-11 20:45:00,,0829.0,4.99,0.00,22.3,22.0,00.0,31.2,24.1,16.0,0000.0,0001.90,0000.99,0000.65
2022-02-11 20:46:00,,0829.1,5.00,0.00,22.3,21.9,00.0,31.2,24.1,16.0,0000.0,0001.95,0001.01,0000.65
2022-02-11 20:47:00,,0829.0,5.01,0.00,22.3,21.8,00.0,31.2,24.0,16.0,0000.0,0002.18,0001.03,0000.67
2022-02-11 20:48:00,,0828.9,4.99,0.00,22.3,21.8,00.0,31.2,24.0,16.1,0000.0,0002.33,0001.07,0000.67
2022-02-11 20:49:00,,0828.4,5.01,0.00,22.2,21.7,00.0,31.2,23.9,16.0,0000.0,0002.30,0001.05,0000.65
2022-02-11 20:50:00,,0828.4,4.98,0.00,22.2,21.6,00.0,31.2,23.9,16.0,0000.0,0002.25,0001.02,0000.63
2022-02-11 20:51:00,,0828.4,5.02,0.00,22.2,21.5,00.0,31.2,23.8,15.9,0000.0,0002.31,0001.02,0000.61
2022-02-11 20:52:00,,0828.4,4.99,0.00,22.1,21.4,00.0,31.2,23.7,15.9,0000.0,0002.22,0001.00,0000.60
2022-02-11 20:53:00,,0828.4,4.99,0.00,22.1,21.3,00.0,31.1,23.7,16.0,0000.0,0002.13,0000.97,0000.59
2022-02-11 20:54:00,,0828.9,5.01,0.00,22.0,21.3,00.0,31.1,23.6,16.1,0000.0,0002.15,0000.99,0000.58
2022-02-11 20:55:00,,0828.8,5.00,0.00,22.0,21.2,00.0,31.1,23.7,16.2,0000.0,0002.02,0000.97,0000.57
2022-02-11 20:56:00,,0828.5,4.99,0.00,22.0,21.2,00.0,31.1,23.7,16.2,0000.0,0002.01,0000.97,0000.55
2022-02-11 20:57:00,,0828.5,5.00,0.00,22.0,21.2,00.0,31.1,23.6,16.2,0000.0,0002.06,0000.94,0000.53
2022-02-11 20:58:00,,0828.7,4.99,0.00,22.0,21.2,00.0,31.1,23.7,16.3,0000.0,0001.87,0000.88,0000.51
2022-02-11 20:59:00,,0828.6,5.02,0.00,22.0,21.2,00.0,31.1,23.7,16.3,0000.0,0001.67,0000.81,0000.48
